CW3224 Weather Reports


time (UTC)temp
C
wind
direction
speed
KPH
gust
KPH
rain 1hr
cm
rain 24hr
cm
rain mn
cm
humidity
%
barometer
mb
20260901041525 18 200 0.0 0.0 0.00 0.00 0.00 84 1017.2
20260901040525 18 200 0.0 0.0 0.00 0.00 0.00 83 1017.0
20260901035522 18 200 0.0 0.0 0.00 0.00 0.00 83 1017.2
20260901034522 18 200 0.0 0.0 0.00 0.00 0.00 84 1017.2
20260901033523 18 200 0.0 0.0 0.00 0.00 0.00 84 1017.3
20260901032522 18 200 0.0 0.0 0.00 0.00 0.00 84 1017.4
20260901031523 18 200 0.0 0.0 0.00 0.00 0.00 84 1017.4
20260901030520 18 200 0.0 0.0 0.00 0.00 0.00 84 1017.2
20260901025521 18 252 0.0 0.0 0.00 0.00 0.00 84 1017.0
20260901024519 18 252 0.0 0.0 0.00 0.00 0.00 85 1017.0
20260901023520 18 252 0.0 0.0 0.00 0.00 0.00 85 1017.2
20260901022519 18 252 0.0 0.0 0.00 0.00 0.00 84 1017.0
20260901021522 18 252 0.0 0.0 0.00 0.00 0.00 84 1017.0
20260901020511 18 252 0.0 0.0 0.00 0.00 0.00 83 1017.0
20260901015510 19 252 0.0 0.0 0.00 0.00 0.00 83 1017.0
20260901014510 19 252 0.0 0.0 0.00 0.00 0.00 82 1017.0
20260901013510 19 252 0.0 0.0 0.00 0.00 0.00 82 1017.3
20260901012509 19 252 0.0 0.0 0.00 0.00 0.00 82 1017.5
20260901011511 19 252 0.0 0.0 0.00 0.00 0.00 81 1017.5
20260901010505 20 252 0.0 0.0 0.00 0.00 0.00 81 1017.5
20260901005504 20 252 0.0 0.0 0.00 0.00 0.00 81 1017.3
20260901004503 20 252 0.0 0.0 0.00 0.00 0.00 80 1017.3
20260901003505 20 252 0.0 0.0 0.00 0.00 0.00 79 1017.2
20260901002504 20 252 0.0 0.0 0.00 0.00 0.00 78 1017.0
20260901001505 20 252 0.0 0.0 0.00 0.00 0.00 77 1017.0
20260901000458 21 252 0.0 0.0 0.00 0.00 0.00 76 1017.0
20260831235454 21 252 0.0 0.0 0.00 0.00 0.00 76 1017.0
20260831234453 21 252 0.0 0.0 0.00 0.00 0.00 76 1017.0
20260831233928 21 252 0.0 0.0 0.00 0.00 0.00 74 1017.3
20260831232939 22 252 0.0 0.0 0.00 0.00 0.00 73 1017.4
20260831231452 22 252 0.0 0.0 0.00 0.00 0.00 72 1017.6
20260831230453 22 252 0.0 0.0 0.00 0.00 0.00 70 1017.6
20260831225452 22 252 0.0 0.0 0.00 0.00 0.00 69 1017.7
20260831224931 22 252 0.0 0.0 0.00 0.00 0.00 67 1017.7
20260831223450 23 252 0.0 0.0 0.00 0.00 0.00 66 1017.7
20260831223420 23 173 0.0 0.0 0.00 0.00 0.00 66 1017.7
20260831221438 23 206 0.0 4.8 0.00 0.00 0.00 65 1017.6
20260831220917 23 156 0.0 6.4 0.00 0.00 0.00 65 1017.6
20260831215439 23 177 0.0 8.0 0.00 0.00 0.00 65 1017.5
20260831214439 23 200 0.0 6.4 0.00 0.00 0.00 65 1017.6
20260831213438 23 170 0.0 8.0 0.00 0.00 0.00 65 1017.6
20260831212917 23 205 0.0 6.4 0.00 0.00 0.00 64 1017.7
20260831211428 23 110 0.0 1.6 0.00 0.00 0.00 64 1017.7
20260831210427 23 145 0.0 4.8 0.00 0.00 0.00 64 1017.7
20260831205428 24 192 1.6 8.0 0.00 0.00 0.00 64 1017.8
20260831204427 24 133 0.0 8.0 0.00 0.00 0.00 62 1017.9
20260831203428 24 203 0.0 8.0 0.00 0.00 0.00 62 1017.9
20260831202426 24 194 0.0 6.4 0.00 0.00 0.00 61 1017.8
20260831201423 24 178 0.0 8.0 0.00 0.00 0.00 59 1017.8
20260831200859 25 136 0.0 9.7 0.00 0.00 0.00 60 1017.8
20260831195423 25 163 1.6 8.0 0.00 0.00 0.00 57 1018.1
20260831194423 25 178 1.6 9.7 0.00 0.00 0.00 58 1018.2
20260831193423 24 175 1.6 8.0 0.00 0.00 0.00 56 1018.2
20260831192424 24 224 0.0 6.4 0.00 0.00 0.00 56 1018.2
20260831191422 24 218 0.0 4.8 0.00 0.00 0.00 60 1018.5
20260831190414 25 177 0.0 9.7 0.00 0.00 0.00 57 1018.5
20260831185413 25 7 0.0 1.6 0.00 0.00 0.00 57 1018.4
20260831184411 25 196 0.0 4.8 0.00 0.00 0.00 57 1018.6
20260831183902 25 184 1.6 12.9 0.00 0.00 0.00 54 1018.6
20260831182412 26 200 0.0 0.0 0.00 0.00 0.00 55 1018.8
20260831181411 26 200 0.0 1.6 0.00 0.00 0.00 51 1018.8
20260831180409 26 225 0.0 0.0 0.00 0.00 0.00 54 1018.8
20260831175409 26 187 0.0 4.8 0.00 0.00 0.00 51 1018.7
20260831174409 26 127 0.0 0.0 0.00 0.00 0.00 51 1019.1
20260831173410 26 100 0.0 0.0 0.00 0.00 0.00 51 1019.1
20260831172412 25 79 0.0 0.0 0.00 0.00 0.00 53 1019.3
20260831171410 25 183 0.0 0.0 0.00 0.00 0.00 50 1019.4
20260831170403 25 161 0.0 4.8 0.00 0.00 0.00 52 1019.4
20260831165401 25 6 0.0 0.0 0.00 0.00 0.00 54 1019.6
20260831164401 24 166 0.0 0.0 0.00 0.00 0.00 57 1019.7
20260831163401 24 166 0.0 0.0 0.00 0.00 0.00 58 1019.7
20260831162359 24 169 0.0 4.8 0.00 0.00 0.00 53 1019.8
20260831161844 24 163 1.6 6.4 0.00 0.00 0.00 57 1019.9
20260831160832 24 151 1.6 9.7 0.00 0.00 0.00 55 1019.9
20260831155359 24 177 1.6 6.4 0.00 0.00 0.00 57 1020.1
20260831154400 24 173 0.0 0.0 0.00 0.00 0.00 58 1020.1
20260831153359 24 129 0.0 0.0 0.00 0.00 0.00 59 1020.1
20260831152402 23 62 0.0 1.6 0.00 0.00 0.00 59 1020.2
20260831151357 23 111 0.0 0.0 0.00 0.00 0.00 61 1020.3
20260831150839 23 85 0.0 0.0 0.00 0.00 0.00 62 1020.3
20260831145357 23 102 0.0 0.0 0.00 0.00 0.00 62 1020.3
20260831144356 22 64 1.6 3.2 0.00 0.00 0.00 66 1020.3
20260831143845 22 135 0.0 4.8 0.00 0.00 0.00 62 1020.3
20260831143313 21 143 0.0 0.0 0.00 0.00 0.00 64 1020.5
20260831141828 21 156 0.0 0.0 0.00 0.00 0.00 67 1020.3
20260831140352 20 158 0.0 0.0 0.00 0.00 0.00 69 1020.3
20260831135350 19 158 0.0 0.0 0.00 0.00 0.00 69 1020.3
20260831134351 18 157 0.0 0.0 0.00 0.00 0.00 72 1020.3
20260831133350 18 158 0.0 0.0 0.00 0.00 0.00 71 1020.3
20260831132352 18 156 0.0 0.0 0.00 0.00 0.00 74 1020.3
20260831131342 17 155 0.0 0.0 0.00 0.00 0.00 78 1020.2
20260831130340 16 165 0.0 0.0 0.00 0.00 0.00 84 1020.2
20260831125341 16 165 0.0 0.0 0.00 0.00 0.00 88 1020.2
20260831124341 15 165 0.0 0.0 0.00 0.00 0.00 91 1020.2
20260831123818 15 165 0.0 0.0 0.00 0.00 0.00 92 1020.2
20260831122339 15 165 0.0 0.0 0.00 0.00 0.00 92 1020.1
20260831121823 14 165 0.0 0.0 0.00 0.00 0.00 92 1019.8
20260831120338 14 164 0.0 0.0 0.00 0.00 0.00 92 1019.8
20260831115337 13 301 0.0 0.0 0.00 0.00 0.00 92 1019.8
20260831114336 13 301 0.0 0.0 0.00 0.00 0.00 91 1019.8
20260831113336 13 301 0.0 0.0 0.00 0.00 0.00 91 1019.8
20260831112818 13 301 0.0 0.0 0.00 0.00 0.00 90 1019.7
20260831111331 13 164 0.0 0.0 0.00 0.00 0.00 90 1019.5
20260831110332 13 165 0.0 0.0 0.00 0.00 0.00 90 1019.5
20260831105814 13 164 0.0 0.0 0.00 0.00 0.00 90 1019.4
20260831104314 13 165 0.0 0.0 0.00 0.00 0.00 89 1019.2
20260831103314 13 165 0.0 0.0 0.00 0.00 0.00 89 1019.2
20260831102802 13 165 0.0 0.0 0.00 0.00 0.00 89 1019.2
20260831101752 13 165 0.0 0.0 0.00 0.00 0.00 89 1019.1
20260831100314 14 165 0.0 0.0 0.00 0.00 0.00 89 1019.1
20260831095259 14 165 0.0 0.0 0.00 0.00 0.00 89 1018.8
20260831094258 14 165 0.0 0.0 0.00 0.00 0.00 89 1018.7
20260831093256 14 165 0.0 0.0 0.00 0.00 0.00 89 1018.7
20260831092254 15 165 0.0 0.0 0.00 0.00 0.00 89 1018.6
20260831091254 15 165 0.0 0.0 0.00 0.00 0.00 89 1018.3
20260831090255 15 165 0.0 0.0 0.00 0.00 0.00 89 1018.3
20260831085254 15 165 0.0 0.0 0.00 0.00 0.00 88 1018.2
20260831084736 15 165 0.0 0.0 0.00 0.00 0.00 88 1018.2
20260831083254 15 164 0.0 0.0 0.00 0.00 0.00 88 1018.2
20260831082255 15 165 0.0 0.0 0.00 0.00 0.00 88 1017.9
20260831081254 16 165 0.0 0.0 0.00 0.00 0.00 87 1017.8
20260831080254 16 165 0.0 0.0 0.00 0.00 0.00 87 1017.8
20260831075735 16 165 0.0 0.0 0.00 0.00 0.00 86 1017.7
20260831074254 16 165 0.0 0.0 0.00 0.00 0.00 86 1017.6
20260831074224 16 164 0.0 0.0 0.00 0.00 0.00 86 1017.6
20260831072253 16 164 0.0 0.0 0.00 0.00 0.00 86 1017.6
20260831071253 17 164 0.0 0.0 0.00 0.00 0.00 86 1017.6
20260831070252 17 164 0.0 0.0 0.00 0.00 0.00 85 1017.6
20260831065252 17 164 0.0 0.0 0.00 0.00 0.00 85 1017.6
20260831064252 17 301 0.0 0.0 0.00 0.00 0.00 85 1017.6
20260831063250 17 165 0.0 0.0 0.00 0.00 0.00 84 1017.6
20260831062250 17 165 0.0 0.0 0.00 0.00 0.00 84 1017.6
20260831061250 18 165 0.0 0.0 0.00 0.00 0.00 84 1017.2
20260831060249 18 165 0.0 0.0 0.00 0.00 0.00 84 1017.2
20260831055249 18 165 0.0 0.0 0.00 0.00 0.00 83 1017.2
20260831054239 18 165 0.0 0.0 0.00 0.00 0.00 83 1017.0
20260831053239 18 165 0.0 0.0 0.00 0.00 0.00 83 1017.0
20260831053207 18 165 0.0 0.0 0.00 0.00 0.00 83 1017.0
20260831051239 19 165 0.0 0.0 0.00 0.00 0.00 82 1016.9
20260831050237 19 165 0.0 0.0 0.00 0.00 0.00 82 1016.9
20260831045238 19 165 0.0 0.0 0.00 0.00 0.00 81 1016.7
20260831044713 20 165 0.0 0.0 0.00 0.00 0.00 81 1016.5
20260831043720 20 165 0.0 0.0 0.00 0.00 0.00 80 1016.5
20260831042716 20 165 0.0 0.0 0.00 0.00 0.00 80 1016.5